Simultaneous Nadir Overpasses (SNOs) Predictions

Prediction of SNOs between METOP-B and NOAA-19 Satellite Orbit:

Table of predicted SNOs for the next 14.0 days since TLE Epoch: 1/25/2014
Index Date (METOP-B) Time (METOP-B) Lat,Lon (METOP-B) SZA (METOP-B ) Date (NOAA-19) Time (NOAA-19) Lat,Lon (NOAA-19) SZA (NOAA-19 ) Distance(km) Time Diff (sec)
1 02/01/2014 02:55:07 73.95, 131.16 91.17 02/01/2014 02:53:55 73.94, 130.07 91.22 33.77 72
2 02/01/2014 03:45:53 -73.70, -62.08 89.06 02/01/2014 03:44:46 -73.69, -62.06 89.06 1.43 67
3 02/01/2014 04:36:34 73.68, 105.18 90.91 02/01/2014 04:35:54 73.69, 105.16 90.93 2.02 40
4 02/01/2014 05:27:15 -73.68, -87.48 89.10 02/01/2014 05:26:50 -73.69, -87.58 89.08 3.29 25
5 02/01/2014 06:17:56 73.65, 79.79 90.87 02/01/2014 06:17:57 73.64, 79.76 90.86 1.48 1
6
